This is the latest recevied weather packets stored in our database for station/object N3TJJ-11. If no packets are shown the sender has not sent any weather packets the latest 1 day(s).
| Time | Temp. | Humidity | Pressure | Rain* | Wind** | Luminosity | Snow |
|---|---|---|---|---|---|---|---|
| 1778027023 | 21.11° C | 50% | 1007 hPa | 0 mm | 3.13 m/s, 220° | - | - |
| 1778026424 | 21.11° C | 49% | 1007 hPa | 0 mm | 2.68 m/s, 229° | - | - |
| 1778026303 | 21.11° C | 49% | 1007 hPa | 0 mm | 2.68 m/s, 242° | - | - |
| 1778025824 | 21.67° C | 48% | 1006.9 hPa | 0 mm | 2.24 m/s, 191° | - | - |
| 1778025583 | 21.67° C | 47% | 1006.9 hPa | 0 mm | 2.24 m/s, 165° | - | - |
| 1778025224 | 21.67° C | 46% | 1006.8 hPa | 0 mm | 2.24 m/s, 218° | - | - |
| 1778024863 | 22.22° C | 45% | 1006.7 hPa | 0 mm | 2.24 m/s, 193° | - | - |
| 1778024624 | 22.22° C | 45% | 1006.8 hPa | 0 mm | 2.24 m/s, 207° | - | - |
| 1778024143 | 22.22° C | 44% | 1006.7 hPa | 0 mm | 1.79 m/s, 206° | - | - |
| 1778024024 | 22.78° C | 44% | 1006.6 hPa | 0 mm | 1.79 m/s, 180° | - | - |
| 1778023423 | 23.33° C | 41% | 1006.5 hPa | 0 mm | 2.68 m/s, 217° | - | - |
| 1778022825 | 22.78° C | 41% | 1006.5 hPa | 0 mm | 2.68 m/s, 232° | - | - |
| 1778022703 | 22.78° C | 43% | 1006.5 hPa | 0 mm | 2.68 m/s, 236° | - | - |
| 1778022227 | 23.33° C | 43% | 1006.6 hPa | 0 mm | 3.58 m/s, 232° | - | - |
| 1778021983 | 23.33° C | 43% | 1006.6 hPa | 0 mm | 3.58 m/s, 240° | - | - |
| 1778021624 | 23.33° C | 43% | 1006.5 hPa | 0 mm | 3.13 m/s, 226° | - | - |
| 1778021263 | 23.33° C | 44% | 1006.5 hPa | 0 mm | 2.68 m/s, 201° | - | - |
| 1778021024 | 23.33° C | 44% | 1006.6 hPa | 0 mm | 2.68 m/s, 229° | - | - |
| 1778020543 | 23.89° C | 44% | 1006.5 hPa | 0 mm | 2.68 m/s, 189° | - | - |
| 1778020424 | 23.89° C | 43% | 1006.5 hPa | 0 mm | 2.68 m/s, 226° | - | - |
| 1778019823 | 24.44° C | 44% | 1006.6 hPa | 0 mm | 2.68 m/s, 240° | - | - |
| 1778019224 | 24.44° C | 43% | 1006.7 hPa | 0 mm | 3.58 m/s, 244° | - | - |
| 1778019103 | 24.44° C | 42% | 1006.7 hPa | 0 mm | 3.58 m/s, 178° | - | - |
| 1778018624 | 24.44° C | 43% | 1006.6 hPa | 0 mm | 3.58 m/s, 236° | - | - |
| 1778018383 | 25° C | 43% | 1006.6 hPa | 0 mm | 3.13 m/s, 215° | - | - |
* Rain latest hour (hover to see other rain measurements)
** Current wind speed in m/s (hover to see current wind gust speed)